Location: Pel�-Koumbol�
(14.9505°N, 3.0798°W)
Time: 14:52:39
(UTC+00:00)

Palapa B4 Rocket - Pass Details

Date: 17 February 2020
Orbit: 502 x 2696 km, 19.7° (Epoch: 04 April)

Event Time Altitude Azimuth Distance (km) Brightness Sun altitude
Exits shadow 05:07:39 39° 290° (WNW) 1,515 4.5 -21.9°
Maximum altitude 05:10:30 82° 13° (NNE) 1,216 4.4 -21.2°
Drops below altitude 10° 05:20:57 10° 101° (E) 4,145 8.5 -18.7°
Sets 05:25:13 0° 102° (ESE) 5,494 9.6 -17.7°
